Location: Newark
(11.2914°S, 14.4718°E)
Time: 13:29:29
(UTC+00:00)

Tiros 1 despin weight - Pass Details

Date: 24 September 2019
Orbit: 593 x 643 km, 48.2° (Epoch: 20 October)

Event Time Altitude Azimuth Distance (km) Brightness Sun altitude
Rises 18:41:40 0° 333° (NNW) 2,809 ? -26.2°
Reaches altitude 10° 18:44:00 10° 340° (NNW) 1,915 ? -26.8°
Enters shadow 18:44:44 14° 343° (NNW) 1,650 ? -26.9°
Maximum altitude 18:48:11 43° 52° (NE) 838 - -27.8°
Drops below altitude 10° 18:52:25 10° 123° (ESE) 1,947 - -28.8°
Sets 18:54:48 0° 130° (SE) 2,862 - -29.4°
